Showing default

BD-17, 40549

Orbit data source: Space-Track

BD-17, 40549 is a payload satellite owned by CNSA (CN) that was launched on Mon, 30 Mar 2015 UTC via a CHANG ZHENG 3C/YZ-1 launch vehicle from the Xichang Space Center, China (XSC). Payloads include a variety of satellites, spacecraft, and rockets equipped with specific instruments for various scientific and technological missions. These include communications satellites like Starlink; space stations such as the ISS; scientific satellites like the Hubble; Earth observation satellites from companies like Planet Labs, Umbra, and HawkEye 360; GPS; miniature CubeSats for education and research; and military/defense satellites.

Not visible in the next 10 days
BD-17 details
Identifier
40549, 2015-019A
Orbit
Active
Last TLE update17 hours ago
Origin
Flag of CNCNSA (CN / PRC)
ManufacturerSECM
MissionAwaiting activation Defense Navigation
Bus & MotorBD-3I, AKM?
Mass~1,150 kg wet, ~850 kg dry
Launch date (UTC)
2015-03-30 (10 years ago)
Launch vehicle
CHANG ZHENG 3C/YZ-1
Launch site
Xichang Space Center, China (XSC)
Object type
Payload
Rocket body
Debris
Shape & HBRBox + 2 Pan, 18 m
Radar Cross Section13.998 m², Large (>1 m²)

Expand to show TLE details & history

TLE from 17 hours ago
0 BD-17
1 40549U 15019A   24360.80813538 -.00000188  00000-0  00000-0 0  9997
2 40549  50.2169 301.9203 0034230 198.1926 341.1296  1.00261937 35679
Epoch: 2024-12-25T19:23Z
Definitive object data (Epoch: 2024-12-25T19:23:42.896Z)
Latitude0.57616°
Longitude95.68065°
Altitude35,652.966 km
Speed3.085 km/s
True Right ascension08h 05m 37s
True Declination0° 34' 32"
Sunlit
Object was in daylight at TLE epoch
Visualization TLE readout
Latitude49.04367°
Longitude-10.59557°
Altitude35,865.033 km
Speed3.07 km/s
Apparent Right ascension00h 51m 54s
Apparent Declination40° 34' 55"
Sunlit
Object is in daylight
Visualization observer readout
Local Sidereal Time12:02:54
Azimuth350.615° N
Elevation-8.732°
Doppler factor1
Orbital elements
Apogee altitude35,933.841 km
Perigee altitude35,645.161 km
Semi-major axis42,167.638 km
Eccentricity0.003423
Inclination50.2169°
RAAN301.9203°
Arg. of periapsis198.1926°
True anomaly341.00222°
Mean anomaly341.1296°
Eccentric anomaly341.06596°
Mean motion0.25065 °/min
BSTARUnknown
Orbital period1436.24 mins
Loading maneuver chart data...
Loading historical data...
Loading historical data...
Loading historical data...
Loading historical data...
Loading historical data...
Loading historical data...
Loading historical data...
Other satellites on launch #19 in the year 2015 (2015-03-30 UTC)

BD-17 Visibility forecast

Observer location: undefined°, undefined

BD-17 is not visible in the next 10 days
Span
Click to sort rows by Start time (UTC) header in descending order
Start Az.
Max El. time (UTC)
Max El. Az.
Max El.
End time (UTC)
End Az.
|